Theta_e
311 311 311 312 312 311 310 311 311 310 311 310 308 311 312 318 308 304 316 317 314 315 315 317 321 328 331 320 323 325 327 326 337 342 338 332 333 341 350 355 351 349 352 349 347 346 346 345 345 348 347 347 349 345 342 350 341 344 344 344 342 341 344 345 346 347 347 346 346 346 344 346 345 344 343 346 344 343 343 340 337 335 335 335 338 338 337
310 310 310 312 310 310 311 311 311 311 311 310 310 310 310 311 317 316 321 320 316 314 316 318 321 328 324 325 327 329 327 323 337 335 333 325 332 334 345 347 350 354 350 352 352 348 346 346 347 347 347 347 346 342 343 341 347 347 344 344 343 343 343 344 347 346 347 347 347 346 345 344 344 344 342 344 341 341 341 340 340 340 341 340 334 334 336
308 310 312 312 311 310 309 311 311 311 311 311 311 310 310 312 312 312 312 321 318 319 329 325 325 338 328 328 322 321 331 327 323 325 324 330 330 332 338 350 349 348 348 348 351 351 348 347 349 348 348 346 343 337 335 338 343 343 342 345 345 345 345 346 346 346 346 345 346 345 345 343 344 344 344 343 344 343 343 342 341 341 339 338 333 334 334
306 309 309 310 311 310 309 309 310 311 310 309 310 310 312 311 313 317 314 314 313 318 323 321 326 327 328 323 326 328 328 324 327 331 329 329 329 335 340 340 348 349 348 351 350 349 348 348 350 349 347 344 340 337 338 339 339 341 342 345 344 346 346 347 347 346 344 345 344 345 345 344 344 344 344 344 343 343 342 340 342 342 338 338 338 337 335
304 309 310 309 310 308 305 306 308 310 311 312 312 313 315 315 314 316 311 310 319 326 326 322 323 319 324 325 324 327 332 335 330 332 332 332 334 340 345 350 350 351 349 352 352 350 348 348 348 347 347 340 337 338 341 342 342 338 339 343 345 347 347 347 345 345 345 344 344 344 344 344 345 345 345 343 342 341 339 341 341 340 340 339 339 339 337
305 308 309 310 306 299 301 314 315 314 311 311 310 310 312 315 320 315 317 320 323 321 320 319 320 321 325 329 334 334 332 330 335 330 330 329 329 333 335 338 343 353 353 350 354 356 346 347 348 349 344 339 340 339 339 338 337 337 341 343 346 346 346 346 345 345 344 343 342 343 344 344 345 344 343 342 342 340 340 342 341 338 337 337 337 338 340
304 308 309 303 298 300 314 316 316 316 315 314 312 312 314 314 325 320 316 317 320 324 321 323 326 329 330 327 328 324 323 337 332 333 328 336 336 336 337 342 339 356 355 355 355 347 346 347 345 343 340 339 338 339 338 337 335 337 341 341 344 345 345 346 346 345 344 343 342 343 343 344 345 343 342 343 342 341 339 338 338 338 338 338 339 337 340
308 305 304 297 298 312 313 315 317 318 316 315 314 312 315 316 315 323 317 318 319 323 323 322 325 325 324 325 335 337 328 326 326 322 325 328 329 331 337 344 347 357 356 357 351 348 348 348 348 344 338 337 335 335 336 333 333 337 343 344 343 344 344 345 346 344 343 343 342 342 343 343 343 342 343 345 345 345 342 338 337 335 335 337 336 335 338
302 303 303 303 317 313 312 312 313 314 314 315 313 307 313 319 319 318 318 319 320 320 321 323 324 326 322 322 325 324 322 329 326 324 327 326 328 332 345 338 344 362 360 358 353 352 351 350 350 342 338 337 335 332 333 331 332 338 342 343 343 343 343 344 345 344 342 341 341 341 342 341 341 341 343 343 343 347 340 336 334 333 333 333 335 335 334
310 303 302 303 303 301 306 318 318 320 320 319 319 316 311 321 319 320 320 322 325 323 320 323 324 326 318 316 317 324 324 324 327 328 331 329 332 334 337 348 347 363 362 362 356 353 352 352 350 344 340 336 334 332 331 331 335 339 339 339 341 343 343 343 344 344 342 341 341 341 341 339 339 341 340 342 343 343 337 335 332 331 331 332 335 337 334
307 304 301 301 299 305 314 316 318 319 321 320 319 313 307 318 320 321 319 319 323 321 320 323 326 318 312 313 320 326 325 326 327 328 329 328 329 335 339 343 346 350 361 363 358 358 354 351 349 342 338 338 335 334 335 335 337 337 339 341 342 343 344 345 346 345 343 342 341 340 341 339 339 339 339 339 340 341 336 335 334 337 335 331 332 334 330
307 305 302 300 306 305 315 315 317 319 321 320 316 302 304 320 321 320 321 318 319 321 327 322 322 318 313 315 322 322 323 324 326 333 340 336 335 340 345 345 353 363 364 364 355 352 348 348 342 336 340 337 335 336 336 335 335 338 340 343 345 346 345 346 347 346 344 344 342 341 341 342 342 343 341 339 339 335 334 333 333 334 333 330 329 328 327
305 304 304 306 309 319 319 316 318 318 320 317 306 299 314 323 326 324 322 320 321 325 325 322 316 325 325 328 329 325 325 324 325 330 333 334 333 335 334 341 354 358 360 359 352 350 349 343 335 338 336 334 332 334 338 340 340 343 346 348 347 346 348 345 345 344 344 344 342 341 343 343 341 337 338 337 337 337 332 332 335 333 332 332 330 331 331
305 306 303 303 308 320 317 320 319 320 314 304 304 319 328 325 323 325 321 320 322 324 326 326 326 324 324 324 323 325 324 324 328 330 331 331 332 332 339 353 354 355 352 357 350 346 343 334 337 336 335 334 335 341 343 342 347 354 354 354 350 349 347 346 344 343 342 344 342 342 344 342 341 342 340 342 339 338 335 336 337 335 334 334 333 329 326
307 307 305 301 295 320 319 317 317 322 314 319 322 324 324 321 325 322 323 321 325 323 326 324 328 326 323 324 324 325 326 331 336 338 333 337 335 337 351 353 353 348 341 339 343 340 334 335 335 335 337 339 343 348 346 351 356 358 357 356 355 353 349 347 344 344 346 345 342 340 339 340 338 336 339 334 330 332 337 337 335 333 332 333 334 331 329
305 303 300 300 311 318 321 321 313 317 323 326 329 325 322 323 323 323 323 327 327 326 330 327 325 326 325 329 331 331 328 330 335 336 341 343 343 342 346 347 346 337 337 337 339 342 336 336 335 337 338 345 347 349 344 352 349 345 345 346 346 349 351 350 346 344 344 341 343 345 342 340 338 339 337 333 332 331 336 337 335 333 333 332 334 329 328
311 309 312 318 322 321 321 322 321 325 325 326 325 325 322 323 325 329 325 329 327 328 331 330 330 326 326 328 326 326 326 327 332 334 337 340 340 340 342 346 346 341 338 339 340 338 340 347 352 354 351 348 347 348 348 350 345 345 345 345 342 339 338 340 345 345 345 342 340 339 339 338 336 336 332 334 335 334 334 334 335 333 332 330 329 329 328
319 320 321 320 322 322 321 321 323 322 322 324 326 325 325 326 328 328 325 326 327 328 331 326 328 328 328 328 326 326 326 328 338 344 342 341 342 339 339 344 343 340 340 340 341 344 342 345 352 351 350 350 349 347 349 347 347 345 343 342 338 337 338 341 342 339 333 334 337 336 337 337 335 337 332 333 334 335 333 332 332 333 332 333 329 328 329
310 305 322 318 318 320 320 318 321 321 323 323 325 326 326 325 324 324 325 327 328 327 330 329 330 325 323 324 327 333 334 340 340 339 339 339 339 338 335 337 340 345 337 335 337 339 343 343 341 336 337 340 346 348 346 346 343 345 340 337 336 337 337 339 339 337 332 331 333 336 335 334 335 333 337 336 335 333 334 332 330 329 328 328 328 325 325
310 313 319 317 318 322 321 319 319 318 321 322 323 324 326 327 327 327 327 326 325 325 323 330 331 327 324 327 335 337 336 337 338 338 339 339 341 345 344 343 343 339 340 338 339 340 340 339 338 336 335 335 338 340 337 337 341 342 340 336 336 334 334 334 335 334 336 332 334 329 330 330 329 334 332 329 329 329 326 327 326 325 325 326 326 322 324
315 319 321 322 321 319 319 319 321 321 322 322 323 323 323 323 323 324 325 326 325 324 324 331 333 334 335 334 337 336 337 336 337 337 335 335 335 341 339 339 339 338 339 338 342 341 341 341 339 339 337 333 330 337 340 339 341 343 341 340 338 337 336 336 335 339 335 335 333 333 334 335 323 316 318 324 327 320 315 317 319 320 322 322 322 321 322
310 312 315 319 314 315 316 317 319 321 323 324 323 322 321 322 322 323 322 324 327 328 330 331 336 334 336 334 334 333 336 337 335 335 335 334 335 341 341 342 343 340 340 343 344 342 341 342 340 339 338 337 332 326 334 337 339 343 342 338 335 331 332 332 332 332 332 328 329 331 329 332 322 313 305 299 308 322 314 305 301 301 306 315 313 319 319
307 313 315 320 321 319 318 318 320 322 323 324 321 321 321 321 322 322 322 322 325 328 331 333 334 338 335 334 336 335 336 340 341 341 339 338 338 339 339 340 341 342 344 343 342 341 341 342 339 337 337 333 337 333 339 340 337 340 338 338 335 329 330 327 327 330 328 328 330 337 334 330 328 321 316 308 295 297 302 301 298 294 294 295 299 304 316
311 313 314 316 316 313 316 319 320 321 325 323 320 321 322 322 322 321 321 322 323 326 329 330 335 334 336 334 333 334 336 337 340 339 337 338 336 334 336 338 340 342 341 339 338 337 340 339 338 340 331 333 339 333 338 336 337 341 336 338 336 331 328 330 337 337 331 335 333 331 332 333 333 329 324 317 312 297 295 299 297 293 294 294 294 296 299
309 313 313 314 314 315 317 318 319 319 322 323 320 319 320 320 320 321 321 323 323 322 325 326 329 335 334 331 334 335 335 335 337 337 337 334 332 329 329 336 338 340 340 339 339 338 338 339 336 335 335 333 335 332 333 333 335 336 336 335 331 330 332 333 334 336 331 336 331 329 328 331 327 328 328 325 316 313 308 295 294 295 295 294 294 295 295
313 312 313 314 315 315 317 316 317 319 320 320 320 319 321 325 323 322 320 325 320 321 320 322 323 330 331 332 333 333 338 335 336 336 333 331 328 327 328 335 336 339 339 339 338 336 333 336 335 331 331 330 334 334 330 334 334 333 333 334 334 334 331 330 334 333 330 331 329 330 332 334 331 330 327 327 323 317 314 312 310 303 296 293 293 295 295
312 312 310 309 308 311 315 315 314 317 317 317 317 319 319 319 325 320 319 319 319 319 318 321 326 330 331 330 332 332 336 336 336 334 335 331 326 328 330 335 334 337 336 335 337 337 334 333 331 332 331 330 333 334 330 330 334 332 332 333 333 332 329 329 328 330 327 330 328 334 328 329 329 327 326 328 327 324 320 319 317 315 313 310 298 294 304
311 310 311 309 310 312 313 316 316 315 315 315 317 316 317 318 317 316 316 317 318 320 319 322 324 328 332 332 329 329 331 333 332 331 332 329 326 325 331 335 333 335 333 335 334 334 332 332 329 330 331 333 334 332 329 332 333 331 331 331 330 329 328 328 328 331 330 332 331 330 329 329 329 327 325 324 323 323 321 322 320 319 317 316 314 307 298
311 312 316 315 315 314 315 315 316 316 317 318 319 319 318 316 316 315 314 315 316 318 319 319 323 329 326 328 329 329 331 330 329 331 331 334 330 325 334 335 335 333 334 333 329 334 333 333 331 331 333 335 332 331 330 330 332 330 330 329 328 327 331 331 332 331 331 331 331 330 327 326 326 326 324 322 322 322 321 320 320 320 319 317 315 312 308
314 315 315 315 314 313 313 313 314 314 315 319 317 318 317 316 315 315 316 317 317 316 318 321 329 329 329 325 331 330 331 331 333 335 332 329 329 333 333 335 332 334 333 332 332 332 332 332 331 331 333 332 330 331 329 332 331 331 331 330 330 330 331 331 329 332 330 331 326 325 326 325 327 326 322 321 320 320 319 317 318 317 317 315 314 312 311
314 315 313 313 312 313 312 313 317 317 318 318 317 315 315 317 315 315 316 318 319 317 321 323 327 333 329 327 329 329 330 331 333 332 331 334 335 334 332 332 330 329 329 330 332 331 333 332 330 332 333 330 327 329 329 329 329 329 331 331 329 322 320 321 325 331 332 327 326 325 325 325 323 322 320 318 318 317 316 316 314 313 313 312 310 308 307
313 313 312 312 313 315 316 318 318 316 316 316 315 315 315 315 314 314 314 315 316 317 319 322 324 327 332 333 333 334 333 331 331 335 331 328 328 328 330 329 331 332 330 333 333 333 333 333 331 332 333 332 329 328 327 328 330 329 329 330 330 330 325 321 325 325 327 330 325 325 325 323 321 320 318 317 315 314 314 313 312 311 311 310 309 307 307
312 311 312 313 313 313 314 315 314 314 314 314 315 317 317 316 316 316 316 318 318 321 321 323 326 326 333 336 334 334 334 331 331 332 331 331 331 333 332 335 335 334 333 334 334 333 331 330 330 332 332 331 329 329 327 327 328 329 328 327 327 327 324 322 322 326 325 325 324 323 323 321 320 319 318 318 317 316 314 313 312 312 311 309 308 307 306
313 313 313 313 313 311 312 312 313 314 314 315 316 316 316 317 317 317 318 319 318 319 321 323 325 327 333 336 335 334 333 332 329 328 327 326 325 324 327 332 333 333 332 333 330 331 331 331 330 330 330 329 328 327 327 327 328 329 327 327 325 324 324 324 323 324 323 322 321 321 321 320 318 317 316 317 316 317 319 316 316 314 314 310 309 307 302
315 314 314 313 313 313 313 312 311 311 311 312 314 316 317 317 317 317 319 320 320 319 323 323 325 327 336 334 333 331 329 328 327 327 326 325 326 329 331 332 331 331 330 330 331 330 329 328 329 328 328 327 327 325 326 326 326 327 326 326 325 324 325 324 323 322 320 320 321 319 319 318 318 319 319 319 315 315 315 315 313 313 311 309 308 308 306
314 314 314 314 314 314 313 312 311 311 311 311 313 314 316 316 317 316 316 317 318 319 320 322 324 325 331 332 330 329 328 328 328 328 329 329 330 330 329 330 329 327 326 326 327 327 328 328 328 328 328 326 324 326 326 325 326 325 326 325 323 323 323 322 321 321 321 320 318 318 317 318 317 317 316 314 315 315 314 313 312 311 310 309 309 307 306
315 314 313 314 314 316 315 316 315 314 313 313 313 313 315 317 317 319 317 316 317 320 321 320 322 322 325 331 329 328 329 329 328 327 327 328 329 327 327 327 327 325 324 321 324 326 325 323 324 324 326 325 323 325 326 326 325 325 324 323 323 321 320 319 319 319 318 319 317 317 316 316 315 314 314 314 314 313 313 313 313 312 310 309 309 308 306
314 314 315 314 314 314 315 315 315 316 316 316 317 318 319 318 319 318 318 318 319 321 323 322 322 324 327 328 327 327 327 328 328 327 327 328 327 326 325 325 325 324 322 322 325 324 323 323 323 323 325 324 324 323 324 323 323 323 322 321 321 320 320 320 318 318 317 317 317 316 315 314 313 313 313 313 313 312 311 311 309 308 309 308 308 307 306
313 314 314 314 314 314 315 315 316 316 315 315 315 316 318 318 319 319 319 317 318 322 321 325 324 324 327 327 327 328 327 327 325 324 325 323 322 322 324 324 325 325 327 326 324 322 321 322 325 324 324 322 322 320 320 320 319 321 322 321 320 319 318 317 316 316 316 317 316 315 315 314 314 312 311 312 311 311 311 309 308 308 307 307 306 305 304
312 313 313 313 313 313 314 314 313 315 316 317 316 316 318 319 319 319 320 322 323 325 324 324 324 323 326 326 324 323 324 323 322 323 324 324 324 323 324 323 324 325 325 324 323 322 323 324 323 322 322 321 320 319 319 318 317 318 319 318 318 317 316 316 316 315 316 315 312 312 311 311 311 311 311 310 312 309 309 309 307 307 307 307 306 305 306
312 313 313 313 313 313 313 314 315 316 316 317 318 319 320 320 321 321 319 321 325 328 327 327 326 325 326 324 323 323 325 323 324 324 324 324 322 321 321 319 322 323 322 322 322 323 324 322 320 319 319 320 318 319 318 317 316 315 316 316 315 314 314 313 313 313 314 312 312 311 311 310 310 310 309 308 309 308 308 307 306 306 306 306 306 305 304
312 313 313 313 314 315 315 315 315 315 316 318 319 319 321 322 321 320 321 325 327 327 328 328 327 326 323 323 321 320 321 322 324 324 323 322 320 319 317 319 321 322 324 324 323 321 320 318 319 319 318 318 318 317 316 317 315 315 315 315 314 314 313 313 313 312 313 312 311 311 311 310 309 309 309 308 308 308 307 306 305 305 305 306 305 305 304
313 312 312 313 314 315 314 315 315 316 316 317 318 321 323 323 322 320 322 323 323 324 324 324 324 323 322 321 320 320 320 321 322 322 322 322 324 323 321 319 320 321 322 321 319 318 318 318 315 314 315 315 313 314 313 313 313 312 311 313 314 313 313 313 313 313 312 311 311 310 310 310 309 309 308 306 306 307 307 306 306 306 305 305 305 304 304
313 313 313 314 314 315 315 315 316 316 315 318 321 323 322 322 320 317 318 321 321 322 321 322 322 322 322 321 320 320 321 321 321 321 320 319 320 321 322 321 321 321 321 319 318 317 316 315 313 313 313 312 311 309 310 309 308 310 311 312 312 311 311 311 310 309 309 309 309 308 308 309 308 307 306 306 306 306 306 305 305 305 304 304 304 304 304
314 314 314 314 315 315 315 315 316 317 317 319 321 321 321 319 319 319 319 319 318 321 321 321 321 321 320 320 320 321 321 322 322 321 318 316 315 316 321 321 321 320 320 320 318 317 314 312 311 311 309 307 307 308 307 307 308 309 310 310 310 310 310 310 310 310 310 310 309 308 308 307 307 307 307 306 308 305 305 304 304 304 304 304 304 304 304
315 315 317 317 316 315 316 317 319 319 316 315 316 319 320 320 320 319 319 320 320 320 323 322 321 321 321 320 322 321 322 321 321 321 322 320 317 318 320 320 319 320 320 319 316 313 310 311 310 309 307 306 307 308 308 309 309 308 307 308 308 308 308 308 309 310 309 309 308 308 308 307 306 304 305 305 305 305 304 305 304 304 305 304 304 304 305
316 316 317 316 317 317 318 318 319 317 315 314 315 318 320 319 319 319 319 320 319 319 322 322 321 323 323 321 322 321 318 318 321 320 321 320 321 320 320 319 318 319 319 317 313 311 308 308 309 309 307 307 307 307 308 309 309 307 307 306 306 306 307 307 308 308 309 308 309 309 308 307 306 305 306 306 304 304 304 304 303 303 303 304 304 305 305
315 315 316 317 318 319 320 319 317 318 317 318 319 317 319 321 321 320 321 321 321 321 323 323 323 322 322 323 322 321 324 320 318 319 320 318 318 318 318 317 316 317 314 314 313 312 312 311 310 310 309 308 308 308 309 307 307 306 306 306 306 305 305 305 305 306 307 308 308 309 306 305 305 304 304 304 303 304 303 303 303 303 304 304 304 304 304
318 318 319 318 317 319 316 316 316 317 315 318 318 320 321 321 321 320 321 321 320 321 322 321 322 322 323 323 323 321 321 323 323 320 319 319 317 316 316 316 318 315 313 311 309 309 311 308 308 309 309 309 307 309 308 307 308 307 305 305 305 304 305 305 305 306 306 306 306 306 306 304 304 304 303 304 303 303 303 304 304 304 304 304 304 304 304
320 321 320 319 318 318 318 316 317 317 320 319 320 320 321 321 320 321 321 320 320 320 322 319 320 323 320 320 322 322 321 321 321 322 320 318 317 317 315 313 313 313 315 312 311 308 312 309 309 308 308 307 307 308 308 308 307 307 306 307 306 305 305 304 304 304 305 306 305 305 305 304 304 304 304 303 304 304 304 304 304 304 303 303 304 304 303
319 318 318 319 318 320 319 318 318 318 319 318 320 320 319 319 319 320 319 318 318 317 319 318 318 319 319 318 320 319 319 320 319 321 319 317 318 316 315 313 313 312 313 313 312 308 307 306 305 307 307 307 308 308 308 309 308 307 307 304 305 304 304 303 303 304 304 305 305 305 305 304 304 305 304 303 304 304 304 304 304 304 303 303 303 304 303
317 318 320 320 319 319 319 318 320 321 321 320 318 318 319 319 316 316 317 318 319 315 315 315 314 317 318 318 318 318 320 319 318 316 317 318 316 314 314 315 312 311 311 311 312 312 308 307 307 308 308 308 308 308 311 312 308 307 307 307 307 304 305 304 304 304 304 305 304 304 303 303 303 303 303 303 303 303 303 303 303 303 303 303 303 303 303
Wind_Speed
19 20 20 14 11 13 12 12 15 17 18 20 20 10 14 8 7 8 7 12 15 12 13 13 11 4 4 4 3 1 4 5 2 3 4 7 8 6 10 7 10 11 10 13 15 15 16 15 15 14 13 12 9 10 9 7 9 9 7 8 9 8 6 5 4 4 4 4 5 5 5 4 3 4 3 2 3 3 3 4 5 7 6 6 4 5 5
16 18 21 21 21 17 18 19 18 18 19 22 22 20 19 16 8 9 9 9 10 9 9 8 6 3 4 4 2 3 5 8 5 6 6 10 6 10 11 12 10 8 11 10 13 16 15 17 16 15 14 12 12 11 9 10 10 7 6 5 7 7 7 6 5 5 4 4 4 4 4 5 4 4 3 4 4 4 4 4 5 5 5 5 7 6 5
17 21 24 23 20 18 18 17 20 22 22 21 19 18 20 19 17 18 16 10 6 6 4 7 5 5 2 4 5 6 4 5 9 9 10 7 9 9 11 13 13 13 13 13 12 13 15 16 16 15 13 12 12 13 12 10 10 8 6 6 8 8 7 7 6 6 6 6 5 5 5 5 4 4 4 4 3 4 4 5 5 5 6 7 6 4 5
14 16 15 12 16 20 21 20 21 21 20 18 14 14 13 14 10 9 6 4 6 6 9 9 3 5 5 2 3 5 7 9 7 6 7 9 11 9 9 13 13 14 15 14 14 14 15 15 16 14 13 13 12 12 11 9 7 5 3 9 10 8 7 6 7 7 7 7 7 6 6 6 5 5 4 4 4 4 5 6 6 5 5 4 4 4 4
12 13 17 21 19 18 20 19 20 21 17 15 15 16 16 14 12 3 3 5 4 3 1 2 4 8 6 8 8 4 2 3 4 6 8 10 8 5 5 4 12 15 15 13 12 15 14 12 13 15 14 10 11 12 9 8 6 7 13 10 9 9 8 7 7 7 7 7 7 6 6 5 5 4 4 5 5 5 6 5 5 4 5 4 3 3 4
8 14 18 13 8 11 11 8 12 12 14 15 18 17 17 15 5 4 3 4 8 6 5 2 3 4 3 4 5 4 3 3 5 7 8 9 9 10 8 8 7 13 11 12 9 10 10 3 2 6 4 8 9 9 10 9 11 9 9 7 9 10 9 8 8 8 8 8 7 7 6 6 5 5 4 4 5 4 4 3 4 6 5 4 4 4 4
10 9 10 11 15 12 7 10 12 16 16 16 17 19 17 13 1 3 6 6 5 3 1 6 4 2 4 4 7 8 9 4 5 5 7 6 7 7 8 6 8 8 13 12 11 13 12 12 13 13 11 10 10 7 6 7 5 12 10 9 8 9 10 10 9 9 9 8 8 7 6 5 4 5 5 4 5 5 5 5 4 4 5 4 3 4 4
8 9 9 10 12 9 13 10 10 14 18 17 14 14 14 7 2 7 6 5 5 3 3 2 1 2 6 5 2 3 7 8 8 9 7 8 9 9 7 6 7 6 14 13 15 14 12 12 15 15 13 12 11 12 8 3 10 12 10 10 11 10 10 10 10 10 8 7 6 6 5 4 4 4 5 4 3 2 4 5 5 5 5 4 5 4 4
12 9 10 14 2 7 10 11 14 9 8 7 7 9 8 10 8 5 4 0 3 6 8 7 2 4 1 1 3 9 13 9 12 9 9 9 9 6 5 7 7 4 10 13 14 12 13 14 15 14 14 13 15 9 8 12 14 13 12 11 11 11 10 10 10 9 9 7 7 6 6 5 5 4 3 4 5 2 3 6 7 6 5 6 5 4 4
5 10 12 11 10 10 9 6 8 8 11 12 12 8 10 7 9 6 6 6 6 8 2 4 4 4 1 5 6 8 12 12 9 6 6 8 6 5 4 2 5 4 5 7 15 15 17 15 14 14 15 17 14 13 13 12 15 13 11 10 9 9 9 9 8 9 9 8 8 7 6 6 5 4 3 3 2 5 6 8 7 7 6 5 5 4 5
9 11 10 9 10 6 3 7 10 13 10 11 11 8 10 1 5 7 10 7 4 3 3 3 5 7 7 5 6 6 11 7 1 6 7 7 6 1 2 4 5 6 4 5 14 12 13 11 9 13 12 14 11 11 11 13 13 12 11 11 10 9 9 7 7 7 7 7 6 6 6 5 4 4 5 5 5 4 5 6 6 5 3 6 6 5 8
9 8 8 11 5 7 6 5 12 13 8 6 9 11 8 2 4 4 7 10 8 3 4 6 5 3 5 4 4 5 8 7 10 3 4 1 4 3 2 3 3 4 4 8 13 12 14 13 20 15 9 7 7 7 10 12 12 11 12 10 10 9 8 7 6 5 5 5 6 5 5 4 4 4 1 1 2 3 5 5 5 4 5 5 7 7 8
12 13 11 9 7 3 7 8 8 4 9 11 10 9 3 4 7 1 1 3 2 5 3 3 4 3 4 3 6 10 6 9 10 3 3 1 1 2 2 4 2 4 5 8 12 10 8 14 16 14 11 10 8 11 13 10 8 7 8 8 8 7 7 7 7 7 5 5 6 5 4 3 2 2 1 2 2 3 5 6 4 5 5 6 7 7 7
12 10 13 11 7 1 6 5 9 5 8 10 5 3 3 5 7 5 2 1 4 4 3 1 1 4 3 5 9 10 10 9 11 2 5 4 4 4 5 7 7 5 7 8 13 13 13 11 9 7 6 8 10 12 9 8 5 3 4 5 6 6 7 6 6 6 6 5 6 5 4 3 3 2 2 2 3 4 4 3 4 5 7 6 6 8 9
10 9 10 7 7 2 9 5 8 11 6 2 1 1 2 3 3 2 2 3 4 4 2 1 4 7 10 11 12 13 12 9 7 5 1 1 3 3 5 7 7 7 13 14 7 11 12 10 10 9 8 10 10 6 5 3 2 2 2 2 3 4 4 4 5 5 4 5 5 5 5 4 4 2 4 7 9 12 6 4 4 6 6 6 4 4 2
7 9 6 1 5 3 6 8 2 5 7 6 3 2 5 7 4 7 5 2 4 5 6 6 7 8 9 9 6 8 12 4 5 2 5 5 8 12 6 6 8 15 8 9 4 6 9 9 7 9 13 10 6 3 3 7 9 9 9 8 8 5 2 2 4 4 5 8 4 4 5 5 4 4 4 3 4 8 7 4 5 5 5 5 3 2 1
5 2 4 3 5 5 8 8 7 4 5 5 4 5 5 5 9 10 4 6 6 5 6 6 6 7 7 9 10 11 13 9 7 5 3 5 4 8 2 4 5 13 10 9 7 9 8 7 5 3 3 5 6 6 4 5 7 7 5 4 3 4 4 5 4 2 3 5 5 5 5 5 5 2 1 5 4 5 5 4 4 4 4 3 2 1 1
2 2 3 5 4 5 8 4 4 6 9 9 8 8 8 6 5 1 4 6 7 7 7 7 7 8 9 9 9 10 12 13 5 7 7 7 8 8 5 3 6 10 12 10 7 9 10 8 4 6 6 8 9 5 4 5 5 6 6 6 6 6 7 5 2 6 6 7 4 6 4 3 3 2 2 1 3 3 3 4 5 5 3 1 1 3 1
3 1 8 3 4 2 10 5 9 10 10 9 8 7 5 6 3 4 3 3 4 6 5 7 6 9 10 11 8 7 8 8 11 10 11 8 7 6 4 6 4 3 10 9 10 7 8 6 6 10 11 9 6 6 5 6 4 3 5 5 5 5 4 4 2 1 6 6 5 4 4 2 3 4 4 4 4 5 5 3 3 4 4 3 2 3 3
3 2 8 10 5 8 8 6 8 8 7 9 8 7 5 5 5 6 8 7 7 7 8 6 6 8 11 8 6 10 9 7 10 10 11 9 5 3 5 5 4 5 6 11 9 7 7 7 6 8 4 1 6 4 3 7 6 7 6 5 3 3 7 8 5 5 5 7 5 3 4 2 1 1 3 4 2 4 5 4 3 3 4 4 4 3 3
1 1 13 11 9 10 9 9 9 7 5 5 8 6 6 7 8 8 7 8 9 8 9 9 9 10 9 11 7 10 9 7 6 7 9 9 6 5 8 1 6 6 7 8 7 9 9 7 7 6 7 5 2 2 4 4 4 4 6 8 10 9 6 4 3 3 4 4 4 3 3 4 7 6 5 4 4 6 6 4 3 3 4 4 4 5 3
9 6 6 10 3 4 3 7 7 6 6 5 5 5 6 7 7 8 9 9 10 11 9 7 6 6 6 6 4 9 8 8 7 5 8 11 13 9 7 8 10 13 7 6 8 9 7 7 6 5 5 6 4 6 8 6 5 7 5 4 5 6 5 4 4 4 3 2 1 2 3 3 6 6 9 10 8 5 5 7 11 11 9 5 3 4 5
6 1 8 6 5 7 6 5 4 4 4 4 3 5 6 7 8 8 9 8 8 9 7 6 4 4 6 5 4 7 8 6 7 7 8 8 6 8 10 11 10 10 10 10 9 8 7 5 6 6 5 5 4 6 6 5 4 3 2 2 2 4 4 5 1 6 7 5 3 2 2 3 5 8 5 9 14 14 12 8 9 9 10 9 11 11 6
10 7 6 6 5 6 3 5 4 4 3 2 3 4 7 8 9 9 9 7 7 6 5 3 5 4 3 6 5 6 9 8 6 5 6 6 8 9 7 6 6 7 8 9 9 9 5 5 4 3 5 7 3 6 6 4 4 4 2 2 2 3 3 2 4 2 3 1 2 3 3 2 1 5 7 6 6 8 7 9 9 9 9 10 10 11 12
7 7 6 5 7 7 7 6 6 5 5 5 5 7 8 9 9 10 10 8 7 9 6 5 2 0 4 2 4 5 8 9 8 9 8 7 7 7 7 9 10 9 8 7 7 6 7 6 5 4 5 4 3 5 2 3 4 2 3 3 4 4 1 1 1 2 2 2 1 3 2 1 2 1 2 6 7 6 5 5 5 8 8 7 8 9 9
5 6 3 2 4 6 7 8 8 5 10 8 6 7 9 9 9 10 10 8 9 10 10 6 7 7 6 4 2 3 3 6 7 6 6 6 7 6 7 10 10 9 9 8 7 7 7 7 6 5 3 5 7 4 3 4 2 1 2 2 3 3 3 1 2 4 4 3 3 2 2 1 3 2 3 3 5 8 7 5 3 2 3 5 4 4 3
9 8 7 6 5 4 4 6 7 11 11 10 10 9 9 10 9 10 10 11 13 13 13 8 5 5 3 4 5 7 7 7 5 6 5 6 8 8 9 9 10 9 9 7 6 7 8 6 5 4 4 6 5 4 2 2 2 1 2 3 2 4 2 1 3 3 3 4 3 1 1 2 3 2 2 3 2 3 6 7 6 6 5 3 4 6 3
6 6 4 5 5 7 8 8 8 9 10 10 10 10 10 9 10 12 12 13 11 11 11 11 5 6 8 7 7 7 6 5 4 5 5 8 9 9 9 11 12 10 8 8 7 6 6 5 6 6 5 5 4 2 2 3 2 1 2 2 3 3 3 3 3 3 2 2 4 4 3 1 1 2 3 2 0 3 2 2 4 6 5 5 5 6 8
2 2 7 5 5 5 6 6 7 7 7 7 8 8 9 10 11 10 11 11 11 11 11 13 10 8 8 8 8 8 8 8 8 9 9 6 6 5 7 10 8 9 9 8 6 6 5 5 4 6 7 4 3 2 2 2 3 2 2 3 2 2 2 2 2 3 4 4 4 4 5 3 3 3 2 1 1 2 3 3 3 5 6 6 6 3 3
6 7 5 5 6 8 7 7 7 8 8 7 9 10 11 12 11 10 10 11 11 11 12 9 6 7 5 5 7 7 7 8 8 6 4 4 6 4 9 7 9 7 9 7 6 6 5 5 4 6 6 5 5 5 4 3 2 2 1 2 3 3 1 1 1 5 5 3 2 4 4 3 3 1 2 3 1 1 3 3 2 4 5 4 4 3 2
5 5 6 8 9 8 9 7 7 7 7 8 10 11 11 10 11 10 10 10 9 10 8 10 7 4 4 5 3 7 8 8 6 3 2 4 9 9 9 8 5 9 8 7 6 6 5 5 5 4 4 1 2 1 2 1 1 1 2 3 5 4 4 6 2 3 3 4 5 3 3 3 3 3 4 3 3 2 2 3 3 4 3 4 4 4 4
6 7 9 8 7 7 6 6 8 9 9 10 11 11 11 11 11 12 11 10 10 10 10 10 11 7 5 5 6 6 4 4 6 8 11 9 5 5 7 11 8 7 8 7 6 6 5 4 5 5 3 1 1 2 3 2 2 2 4 4 3 2 1 3 1 5 4 2 2 2 4 3 4 4 3 3 3 2 3 4 4 4 3 3 4 5 4
6 7 7 8 10 10 10 9 9 10 11 11 10 10 10 10 10 11 11 11 11 10 9 7 7 10 4 5 4 6 8 9 8 8 7 5 2 4 4 8 1 5 7 5 5 6 5 5 5 4 3 2 1 1 1 2 2 3 4 4 3 3 2 4 2 1 3 3 3 3 4 4 4 4 3 3 3 4 3 2 4 3 3 4 4 5 4
7 7 8 9 9 9 10 11 10 10 10 11 11 11 11 11 11 12 12 12 12 13 11 9 9 8 2 6 7 6 7 8 7 6 7 6 3 3 11 4 5 5 6 5 6 4 4 4 4 2 2 3 2 1 2 3 5 3 3 5 4 3 3 2 2 3 4 5 6 6 5 5 4 4 4 5 3 1 0 3 4 3 2 5 6 5 4
8 9 10 11 11 12 13 12 12 12 12 12 12 12 11 12 11 12 12 12 12 12 11 10 9 2 7 4 4 4 5 6 7 9 8 7 8 8 8 5 7 7 6 6 6 5 4 4 2 1 3 1 1 1 5 4 2 3 5 4 4 4 3 3 2 4 5 4 4 5 5 5 3 2 2 3 2 2 3 4 3 4 4 5 4 4 5
11 11 11 11 12 14 14 14 14 15 14 13 13 12 13 12 14 14 14 13 12 13 12 9 5 2 2 4 4 5 6 6 7 6 6 5 3 2 6 6 7 8 7 6 4 5 5 5 6 10 5 1 1 4 4 2 4 4 3 3 4 4 4 3 4 4 4 5 4 3 2 3 3 2 3 3 3 4 4 4 3 1 6 5 5 5 6
12 12 12 12 13 13 15 13 13 13 13 13 13 13 13 14 14 13 14 14 13 13 11 9 8 8 7 6 5 5 7 8 7 6 5 4 5 3 2 4 5 7 7 6 6 8 7 6 5 3 2 2 2 6 4 5 1 3 2 3 4 4 4 4 4 4 4 4 4 4 4 4 4 5 5 5 5 4 4 4 2 2 2 5 6 4 3
13 13 14 14 13 14 14 14 15 15 15 15 14 13 13 13 14 14 14 14 13 12 9 6 6 4 4 2 2 7 8 7 8 7 6 4 4 2 2 1 1 2 4 5 7 6 6 5 4 2 4 2 3 2 4 6 4 1 2 2 3 4 4 3 5 5 5 5 6 6 6 6 6 6 6 5 4 4 3 2 4 3 1 1 2 2 1
15 14 15 15 15 15 15 14 14 14 14 16 15 15 14 15 16 16 15 15 13 11 8 5 4 3 3 5 6 7 7 8 9 8 8 9 6 3 3 1 1 2 4 6 6 6 5 3 4 3 2 2 3 6 5 1 2 3 3 3 3 4 6 5 5 6 5 5 4 2 4 4 2 1 1 4 5 3 2 2 3 1 1 3 4 5 5
15 15 16 17 16 15 16 16 15 14 15 14 15 15 15 15 16 16 15 14 11 6 5 3 3 4 6 6 6 7 7 7 8 7 8 7 6 7 5 6 5 5 4 3 4 5 5 7 5 4 2 2 1 3 4 2 4 5 2 4 5 4 4 4 3 2 2 3 3 2 2 2 3 4 3 3 1 2 1 2 1 4 6 7 7 8 6
14 14 15 15 15 15 15 15 14 14 14 14 14 14 14 15 15 16 15 14 7 3 2 3 4 5 7 7 5 4 7 7 7 8 8 6 4 3 5 6 5 5 6 6 4 5 5 3 3 4 2 2 2 3 2 2 3 5 4 1 1 2 2 2 1 2 2 3 3 3 4 4 5 6 3 4 4 4 4 2 3 5 6 9 3 5 4
14 14 14 14 13 13 13 14 14 14 13 12 13 14 13 14 14 13 16 13 3 5 5 5 5 6 6 8 9 8 7 6 6 7 7 7 8 7 5 4 2 4 9 10 9 7 4 2 3 4 2 4 3 4 4 1 3 4 4 2 3 3 4 4 5 5 5 5 6 7 7 6 5 5 7 7 7 7 7 7 6 5 6 5 3 4 3
14 14 14 13 12 12 12 11 12 12 12 12 12 11 11 10 8 8 11 4 2 4 5 5 5 6 6 6 6 5 5 5 5 5 5 3 3 2 4 6 6 6 8 6 6 5 3 4 5 4 8 7 5 5 2 2 4 4 6 6 6 6 5 5 5 4 5 6 7 7 6 5 6 6 7 6 6 7 9 6 4 5 4 4 5 4 5
14 13 13 12 11 10 10 10 9 10 10 9 8 7 5 6 5 2 5 8 4 3 4 4 5 5 5 5 5 5 4 4 5 5 4 5 5 7 10 8 6 8 11 6 5 5 5 5 5 7 8 7 6 4 2 4 5 6 7 8 6 5 6 6 4 3 4 4 4 4 4 4 4 4 7 6 7 4 3 4 7 4 3 5 4 4 5
12 12 11 12 12 10 9 9 9 8 7 8 7 7 6 7 8 6 6 2 4 2 3 3 3 4 4 4 4 5 4 4 4 4 5 6 6 6 6 7 7 7 8 9 6 5 6 6 8 9 6 5 4 4 2 3 5 6 6 5 6 6 7 6 3 4 4 4 4 5 5 2 5 8 9 5 7 3 4 4 1 3 5 5 4 5 4
10 9 9 8 9 8 7 6 4 3 4 4 6 4 5 6 6 7 7 6 1 3 3 2 2 2 1 3 4 3 4 3 3 4 3 4 4 6 7 7 5 6 9 8 3 7 6 12 11 8 7 4 3 2 3 4 4 5 5 5 6 7 6 7 6 3 3 4 4 4 5 5 5 8 6 3 7 7 4 2 2 5 5 4 4 4 3
8 8 7 6 7 7 6 4 2 3 6 5 5 1 2 1 4 3 1 3 6 9 7 3 2 2 1 1 2 3 4 3 4 4 5 3 6 7 8 9 8 9 8 7 8 7 8 8 9 9 7 3 3 3 5 4 2 2 3 5 5 6 6 6 8 7 4 4 3 3 3 3 3 3 4 4 5 3 1 2 4 4 3 2 3 3 2
9 8 7 6 6 6 6 6 5 5 4 2 2 3 2 2 2 2 1 2 0 3 2 1 1 1 3 1 4 4 3 2 2 3 3 5 6 6 6 5 6 7 4 3 9 10 12 11 11 8 8 5 4 6 7 8 7 3 1 2 4 5 5 6 8 8 4 2 2 3 4 5 4 4 5 4 5 2 3 5 5 5 5 5 6 4 4
7 8 7 6 6 6 6 5 6 6 5 5 3 2 3 3 2 1 1 1 2 2 2 2 2 4 5 6 3 2 3 4 4 2 3 5 6 6 6 8 9 9 6 6 7 6 9 10 10 8 8 6 5 5 7 10 3 4 5 5 5 6 6 4 5 7 6 4 4 3 3 6 5 6 6 6 5 3 3 5 3 4 6 5 5 5 5
5 4 4 4 4 5 5 5 5 3 4 3 3 2 1 1 1 1 1 2 3 2 1 3 5 4 4 4 5 2 2 3 3 4 5 5 7 6 6 8 8 8 8 6 8 7 9 12 10 9 7 5 6 6 6 7 6 1 1 3 4 4 1 3 7 8 5 4 3 3 4 5 5 4 4 5 6 5 6 6 6 4 7 2 5 5 6
4 5 4 3 3 3 5 5 4 4 4 5 3 1 1 1 2 2 2 2 3 3 3 4 4 4 4 3 3 4 4 4 5 6 5 6 7 7 9 7 8 8 8 7 5 8 7 7 7 7 6 6 5 6 7 6 8 4 4 6 7 4 3 4 6 7 6 5 4 4 5 5 4 4 5 7 6 5 5 5 6 5 5 6 5 5 5
3 3 4 5 2 3 4 4 3 2 1 0 0 0 1 2 3 3 3 3 3 5 4 4 5 5 3 2 2 3 4 4 4 5 6 5 6 5 9 10 8 8 7 7 6 8 8 8 8 9 9 6 6 6 5 4 4 5 6 5 6 7 7 4 4 5 5 5 5 6 4 4 5 5 6 5 5 4 4 5 5 5 4 5 6 6 5
Wind_Direction
225 246 261 260 229 226 247 236 233 226 223 248 258 245 241 230 218 231 175 194 207 215 212 191 209 250 217 207 190 31 15 330 287 219 222 188 195 196 149 169 174 198 202 188 192 192 196 196 200 191 185 174 163 156 151 137 129 129 140 155 160 170 169 172 165 170 174 187 186 188 201 203 195 206 215 221 214 225 237 277 272 278 287 296 303 296 282
216 223 244 247 247 250 226 224 236 242 234 223 226 249 258 244 221 233 148 175 214 225 235 251 264 205 297 294 295 352 299 275 260 264 268 281 233 194 172 183 195 192 204 201 193 193 191 193 190 183 178 172 156 144 125 131 136 141 135 169 160 171 173 173 169 175 184 192 186 195 199 196 193 205 214 211 224 219 234 257 274 266 277 284 282 272 278
231 224 215 226 242 258 263 235 226 233 231 237 235 231 238 251 254 236 233 150 199 214 226 246 256 37 332 54 328 274 291 313 296 296 297 283 269 217 188 179 187 196 204 213 208 185 185 184 181 178 173 161 149 134 143 135 139 156 169 179 171 171 173 173 174 178 187 190 195 196 201 203 203 212 216 229 225 228 230 237 249 259 253 257 270 289 296
242 247 254 230 233 241 251 259 249 239 243 239 229 234 226 232 230 238 267 205 198 211 195 220 176 217 194 161 222 235 227 243 244 258 248 246 261 275 200 196 184 188 197 198 199 185 181 182 178 175 166 161 139 145 144 150 148 122 190 193 175 168 177 174 176 185 189 194 192 197 198 200 207 206 221 221 229 231 232 240 242 242 256 259 261 261 258
237 240 241 237 238 242 235 235 244 248 239 240 246 246 244 240 249 193 215 265 305 351 48 291 239 250 191 191 205 223 308 16 338 312 309 306 304 299 323 257 194 187 188 182 184 181 184 183 182 178 162 132 144 148 146 132 129 149 215 183 170 170 180 181 188 191 193 195 191 193 192 203 205 211 213 224 235 241 245 243 249 259 261 255 270 279 274
238 241 254 271 286 259 249 273 286 301 275 248 245 246 248 243 178 202 162 83 43 23 360 355 346 288 322 355 19 6 309 292 258 255 264 274 275 274 261 260 238 186 179 171 170 127 120 112 19 0 26 132 132 135 134 148 123 219 215 188 169 175 179 189 190 194 197 195 195 191 196 197 199 205 216 232 242 250 261 259 254 251 247 252 251 258 242
248 248 258 259 250 250 272 282 286 280 283 282 277 273 274 286 115 148 147 137 175 192 35 259 263 25 352 290 267 271 275 284 289 289 287 275 275 271 270 263 266 188 184 158 133 148 165 171 159 168 181 155 136 114 84 79 151 230 206 186 186 175 186 189 193 192 194 193 189 193 196 197 198 204 216 224 240 240 239 252 269 266 254 255 261 262 206
249 251 241 245 245 263 264 301 297 272 268 277 305 304 315 297 220 117 123 161 250 298 268 232 199 243 248 245 240 279 266 263 262 264 264 257 246 239 235 252 250 202 177 162 158 171 173 166 172 172 163 146 103 71 54 147 227 228 202 189 185 182 186 191 194 193 191 185 183 192 193 195 204 218 219 219 231 276 306 286 258 255 261 258 251 260 229
243 230 237 251 7 283 264 260 260 263 261 270 273 291 293 318 329 341 5 108 218 230 216 222 220 240 204 334 312 284 273 236 227 243 258 264 274 265 204 234 248 227 176 172 160 155 167 174 184 160 147 111 91 108 175 210 224 216 191 187 184 183 190 189 190 187 185 183 184 185 188 198 216 228 231 216 222 170 254 249 249 251 251 256 250 250 271
276 253 244 243 227 242 237 240 267 287 280 270 266 267 274 274 282 301 282 255 209 202 224 60 346 27 0 278 278 286 285 227 175 205 261 286 289 318 302 232 254 195 177 151 151 168 174 180 178 138 131 118 145 165 192 207 212 196 189 190 190 188 192 190 184 181 179 184 182 181 183 196 200 214 226 216 190 168 225 246 251 255 258 257 259 248 257
215 229 248 248 255 247 279 218 222 247 259 267 272 244 256 205 303 267 258 254 162 208 204 159 210 247 266 278 280 27 331 9 193 207 215 246 260 188 285 248 227 208 180 156 155 157 143 151 126 70 102 135 147 179 201 209 197 189 193 192 190 192 191 188 185 181 180 179 180 180 185 186 197 223 227 217 212 194 234 251 254 255 279 280 267 253 253
236 239 236 245 227 259 226 205 208 217 214 273 299 270 242 38 339 260 231 246 238 193 199 215 251 210 239 245 297 359 314 301 269 247 99 307 348 84 293 278 227 132 164 129 145 144 151 146 100 127 126 136 170 198 213 214 202 193 189 188 183 185 188 185 185 183 177 173 174 185 180 169 193 212 203 352 323 295 273 265 265 266 259 274 282 288 293
229 233 246 259 242 253 4 305 301 230 230 200 200 229 359 300 247 182 43 304 123 107 98 134 252 211 225 244 241 268 281 304 300 141 131 104 21 336 273 258 132 165 179 155 142 141 117 97 123 141 148 142 184 210 217 211 208 191 179 175 176 179 175 176 179 184 177 173 173 168 172 182 170 127 167 223 259 266 272 280 290 289 284 278 285 279 325
243 233 240 239 254 73 275 292 274 285 219 234 213 29 232 352 14 87 284 357 124 165 187 327 287 331 347 275 289 325 322 301 294 184 184 209 201 195 234 144 149 170 176 138 127 112 100 109 81 74 142 175 208 216 196 203 204 167 135 144 165 168 173 179 180 179 183 163 162 164 139 132 141 169 154 223 249 269 281 299 311 309 299 283 282 24 15
244 243 249 234 243 54 274 357 290 19 331 41 320 121 51 197 325 36 97 295 36 12 344 321 347 324 323 335 334 334 326 353 44 344 34 263 166 244 119 127 141 87 51 3 32 113 107 121 130 168 205 223 209 186 186 174 165 111 70 97 121 153 167 181 185 174 161 135 128 141 158 146 115 130 64 41 2 317 288 287 287 284 291 300 343 82 161
274 250 233 319 4 183 60 36 30 88 117 189 101 224 60 328 19 6 1 39 356 16 6 346 326 313 312 308 308 320 310 318 170 101 36 50 37 55 59 74 77 82 112 119 286 20 95 120 162 196 211 192 175 161 70 47 51 47 38 27 21 11 355 188 169 175 161 143 152 115 111 114 118 98 107 150 183 257 278 272 273 285 303 317 315 84 18
342 30 102 81 353 19 98 99 93 117 136 118 113 68 83 17 21 7 336 356 358 357 338 323 306 296 288 302 318 317 305 280 197 166 134 98 70 85 64 80 134 127 143 147 153 146 185 168 189 203 183 114 84 68 60 58 67 78 79 70 34 11 355 337 295 235 90 102 102 91 106 99 83 61 194 197 205 213 246 266 271 260 252 262 352 116 274
211 41 66 85 40 1 20 43 97 53 64 57 43 49 54 66 49 316 330 347 341 340 346 322 319 312 317 305 299 305 300 309 353 87 78 44 43 64 48 261 183 128 132 154 140 81 57 6 45 74 63 64 70 68 71 62 59 62 55 49 34 14 357 321 34 80 76 36 49 108 95 81 119 209 286 164 190 213 228 241 242 245 239 192 89 312 313
248 219 268 81 95 352 52 21 53 55 47 55 53 51 46 41 15 355 342 317 328 309 304 282 282 287 297 292 287 286 317 41 72 60 49 38 30 28 44 258 234 140 148 133 104 105 114 109 51 50 47 37 45 77 107 106 98 59 55 58 52 13 8 336 306 286 110 191 184 136 105 121 223 203 193 205 221 238 235 266 316 312 313 322 340 328 343
253 339 187 210 211 104 77 55 59 60 46 50 41 26 23 28 18 13 359 354 309 319 298 303 300 304 292 321 44 77 89 77 50 53 49 31 24 346 86 254 165 154 119 112 133 138 117 103 105 88 77 197 212 198 175 130 137 142 142 125 111 209 216 219 223 202 171 104 115 131 151 209 252 55 297 271 284 47 47 20 5 352 342 348 338 337 334
225 6 5 344 142 88 70 76 65 46 32 18 45 20 20 23 19 11 347 354 337 313 319 347 359 358 354 97 107 84 73 75 75 74 91 69 6 305 100 166 118 97 115 113 122 127 123 129 119 138 165 198 44 203 152 130 122 121 147 173 174 190 194 222 161 94 111 171 175 183 97 87 65 35 3 2 57 88 39 23 22 20 349 352 10 340 19
347 351 21 356 74 57 14 51 46 40 40 3 30 34 25 31 9 9 359 1 354 340 353 349 37 50 33 41 70 114 108 110 123 151 132 149 180 165 136 127 130 131 123 107 119 110 110 111 120 124 88 60 19 33 76 103 132 156 163 177 188 208 210 198 177 176 209 227 36 102 169 158 115 90 57 42 30 70 92 56 59 53 61 60 13 338 73
181 117 42 15 75 115 45 36 41 4 41 16 15 29 22 14 5 6 4 357 355 348 350 23 33 64 81 51 70 109 128 143 147 158 163 146 133 114 103 99 84 77 104 118 113 102 91 90 98 108 119 105 70 85 65 56 73 84 127 160 208 237 219 238 205 169 201 220 176 196 207 242 169 139 120 54 46 62 80 80 71 74 81 75 55 39 47
78 55 60 34 6 12 326 10 352 350 66 354 347 348 11 5 347 352 350 345 336 325 319 336 35 360 22 118 134 130 134 153 145 159 143 122 107 99 103 118 125 132 131 122 120 119 119 110 107 108 113 108 91 92 100 86 78 97 137 128 214 252 270 73 88 354 304 279 197 198 219 196 183 151 139 122 90 46 65 80 78 73 70 72 74 72 64
78 69 60 17 338 313 321 326 336 316 287 60 14 345 347 349 332 339 320 320 312 296 289 278 224 211 279 249 178 178 166 169 174 168 149 144 146 146 164 146 139 137 124 115 111 123 134 137 125 111 86 86 98 71 77 117 116 123 137 211 241 250 173 82 79 274 259 115 194 256 272 225 187 157 216 150 132 118 70 54 78 94 88 71 70 84 87
14 41 10 327 267 291 293 298 288 349 23 8 349 336 331 318 313 308 307 306 300 289 278 253 262 196 190 253 128 97 145 176 175 172 185 177 179 183 188 153 140 135 136 136 143 144 137 131 124 113 115 114 106 114 102 106 139 171 227 229 242 253 276 222 163 173 204 194 250 193 155 51 321 255 213 260 142 137 141 147 116 47 79 82 102 96 92
2 356 347 334 304 291 7 1 353 347 338 338 323 322 310 305 307 306 301 292 290 290 289 268 242 283 240 212 234 195 199 216 218 196 180 177 182 190 173 158 151 146 145 139 138 134 123 109 103 123 135 116 113 116 142 130 122 196 200 241 235 257 184 218 277 270 229 232 224 278 79 155 194 223 330 96 87 174 174 166 167 158 159 171 205 236 247
348 341 345 352 24 9 350 339 334 328 316 313 317 314 320 317 299 292 292 290 288 291 305 308 272 206 218 216 217 193 192 185 217 218 205 218 219 214 190 162 153 156 140 118 118 118 129 139 143 151 133 118 118 149 162 134 141 136 255 262 260 272 279 193 196 219 270 70 96 114 75 15 75 46 61 6 56 136 127 131 141 144 144 146 148 197 235
228 53 51 13 2 340 314 305 287 294 312 316 320 322 315 311 312 309 305 301 296 294 283 294 285 223 223 223 203 196 182 179 204 223 233 241 247 251 139 150 147 145 122 130 134 144 149 144 149 133 134 140 164 180 139 152 169 197 215 239 265 303 13 54 79 43 55 63 63 70 108 117 88 121 127 112 122 93 95 110 129 138 137 129 142 135 213
35 26 355 353 326 313 319 323 340 331 314 329 332 332 330 327 324 323 326 322 326 319 317 324 359 336 309 247 156 171 185 194 197 208 214 250 270 264 156 152 138 136 139 144 151 160 153 142 153 146 147 177 199 164 189 173 181 185 218 273 47 49 13 8 123 96 86 73 135 122 106 106 105 93 99 96 49 77 93 89 89 108 142 131 86 98 34
25 358 332 328 332 335 315 323 324 324 331 330 328 319 312 315 316 323 317 320 307 303 304 308 298 197 209 253 205 185 196 199 196 200 201 24 35 23 17 317 195 155 155 149 151 149 142 147 156 148 133 211 21 85 122 133 162 187 121 82 97 71 35 355 79 114 141 173 155 170 143 120 152 167 154 159 156 146 149 142 126 98 82 79 76 56 25
352 350 336 323 318 314 320 342 340 327 322 317 308 310 319 319 313 306 306 300 303 301 303 301 316 300 202 177 169 175 161 102 85 72 66 72 82 267 235 238 215 160 152 138 146 140 136 141 128 112 121 97 178 204 213 177 204 116 101 120 109 85 53 340 150 144 148 192 194 126 120 167 172 182 191 183 136 163 181 155 127 119 126 120 85 65 27
352 334 334 345 338 329 327 322 316 315 315 311 309 307 306 303 301 302 307 316 315 310 301 311 305 294 202 159 130 104 96 91 84 81 90 93 30 307 264 245 0 93 108 116 109 125 138 152 141 135 137 135 154 107 287 232 230 135 135 129 130 131 140 111 56 187 146 179 184 175 158 162 170 194 111 86 145 165 160 136 121 117 104 80 77 81 52
360 344 337 326 321 316 310 310 308 306 307 306 306 304 303 310 316 315 312 307 303 307 317 318 322 324 32 84 106 123 120 114 108 113 112 103 92 303 287 304 89 97 94 105 119 125 97 86 107 139 115 167 158 210 133 61 76 122 145 135 135 164 173 138 122 31 49 76 84 93 112 119 123 129 151 189 171 125 179 219 173 160 203 113 93 95 115
337 326 320 315 317 314 313 310 310 303 300 301 305 308 310 308 305 304 304 301 297 295 290 293 290 277 121 125 129 138 141 132 134 131 132 150 176 195 222 184 120 114 112 100 89 95 131 121 46 153 165 355 24 357 79 69 95 99 84 88 124 147 115 93 104 112 112 127 137 148 160 183 157 115 110 119 155 202 212 217 211 204 151 122 129 120 124
333 327 323 318 312 308 304 300 296 298 297 293 293 294 295 296 298 296 294 290 288 282 280 280 296 309 172 143 145 137 123 108 106 109 112 126 129 208 236 155 129 122 122 122 127 124 104 65 46 14 346 222 176 66 47 82 101 91 98 122 119 122 112 114 116 120 119 127 142 145 127 113 120 156 166 175 197 222 237 268 264 229 117 144 142 151 142
327 321 314 310 307 304 303 304 298 293 291 288 283 282 283 287 288 288 289 286 278 274 270 273 286 261 215 187 189 143 120 128 130 132 142 159 163 206 210 145 156 150 152 139 102 91 92 87 67 349 314 216 134 86 45 10 183 119 155 144 135 130 142 147 152 145 137 139 153 167 171 183 203 192 199 205 222 234 252 246 277 337 125 143 151 148 137
312 307 305 304 302 300 299 301 303 300 296 294 292 291 291 289 286 282 282 282 280 275 281 272 247 263 335 313 184 135 134 142 138 138 148 138 91 130 210 136 133 137 148 118 114 104 91 93 120 182 251 115 89 139 102 35 8 163 181 172 149 151 137 149 155 169 169 179 187 185 184 197 201 196 208 225 245 255 262 281 82 95 113 236 257 109 116
305 304 298 294 295 291 290 290 292 293 293 288 289 285 283 283 281 281 272 268 268 265 252 227 237 244 148 156 159 140 118 113 114 116 109 108 122 140 148 185 328 21 90 120 108 99 112 148 231 221 44 95 162 113 105 84 328 272 183 160 176 180 165 182 166 181 171 178 210 209 219 232 233 253 255 237 219 196 168 30 2 342 231 242 230 208 199
301 297 298 297 291 293 291 286 284 289 293 299 297 302 304 305 300 298 299 289 275 276 240 209 223 167 153 140 137 127 130 137 140 153 146 147 165 169 131 99 111 109 106 102 129 124 155 222 204 133 163 205 116 75 90 354 323 295 178 177 202 193 194 187 182 176 108 155 129 85 295 276 244 253 252 284 67 101 126 162 260 286 271 249 208 198 182
296 298 293 289 292 293 294 305 308 303 299 298 302 303 306 302 303 295 280 284 280 162 170 139 158 155 166 179 159 157 163 146 142 130 118 120 128 127 161 154 146 145 169 190 167 123 154 251 185 141 89 3 107 70 182 194 267 304 293 257 327 261 255 243 247 244 189 213 231 252 251 232 227 237 217 227 203 184 167 150 233 253 245 257 309 46 57
302 295 295 300 302 305 305 299 294 291 296 305 307 309 319 328 324 328 312 280 232 105 94 110 121 122 114 111 118 105 107 125 131 137 152 174 174 177 174 139 107 81 94 101 113 123 148 155 50 45 138 136 119 73 42 343 274 274 269 218 234 238 240 226 223 225 227 218 213 215 219 232 244 228 207 214 218 176 167 186 191 218 248 255 245 208 196
298 294 293 292 290 289 290 296 299 300 303 300 305 318 322 325 344 357 322 317 282 130 123 114 118 127 144 149 150 155 164 164 168 174 170 156 156 213 150 119 115 131 118 117 134 148 173 97 93 78 62 67 66 51 17 293 280 273 270 246 211 211 218 222 212 198 211 216 212 215 223 231 227 217 208 206 229 190 187 187 203 185 199 233 230 214 202
296 295 294 292 293 298 297 293 299 307 305 309 324 323 334 1 13 331 275 280 307 86 131 144 160 156 167 156 160 139 147 148 154 166 160 150 119 116 131 140 162 160 159 158 165 176 143 118 111 95 83 74 72 41 333 295 276 270 268 284 300 298 256 218 220 258 289 299 297 294 276 265 267 307 314 280 260 314 331 211 169 165 183 218 228 228 229
300 300 301 300 298 291 285 290 298 306 317 311 321 350 10 26 27 324 290 315 284 279 126 157 157 173 164 166 164 155 155 164 178 167 181 173 161 150 141 149 160 171 182 175 183 171 126 118 108 100 82 68 29 8 332 285 277 276 289 300 297 298 306 289 233 208 219 222 252 274 275 293 267 220 197 257 358 349 194 179 238 228 230 216 215 222 206
316 317 325 321 307 306 305 298 297 276 267 294 310 328 17 26 39 26 353 319 244 199 170 159 185 188 162 151 144 145 151 168 164 168 169 184 181 146 159 160 165 176 186 187 120 119 113 117 109 108 96 69 1 299 272 265 282 315 321 305 291 290 292 305 307 264 216 217 213 225 245 241 266 326 341 265 242 230 235 281 225 221 229 213 202 227 208
332 324 317 308 298 301 307 301 277 258 254 252 265 316 41 91 81 78 77 19 355 338 338 8 48 13 16 159 132 166 164 177 185 185 180 138 124 144 165 167 172 181 181 180 151 146 136 135 132 126 121 152 213 251 251 250 288 324 320 312 309 319 316 309 292 268 240 236 230 233 250 273 291 262 244 263 288 316 128 214 225 247 264 270 257 226 177
345 341 339 327 307 293 268 261 256 257 282 71 46 49 45 36 62 103 107 306 253 257 277 4 74 143 289 301 191 178 113 237 203 206 175 154 160 161 159 176 166 167 116 52 125 133 141 146 137 137 170 198 223 235 238 230 188 164 243 0 348 323 307 299 296 295 281 273 249 227 232 237 221 232 245 237 249 224 195 231 204 210 225 215 219 213 188
337 333 332 341 337 343 338 334 329 347 344 328 340 13 354 6 39 335 299 281 274 233 257 274 246 209 208 217 182 188 165 132 128 201 181 178 173 199 178 144 153 162 148 144 141 142 151 145 144 160 182 213 234 256 255 288 324 180 236 256 251 276 292 330 355 348 329 268 225 233 241 235 226 223 229 240 236 206 214 250 236 215 223 226 206 199 203
330 312 323 347 345 348 347 359 14 3 314 335 28 23 20 89 331 309 352 309 281 269 257 266 272 250 222 202 136 172 209 191 164 183 172 164 173 191 158 146 151 166 191 189 172 156 156 160 165 183 189 205 231 248 267 275 293 358 61 304 284 234 156 20 302 292 307 311 289 252 234 234 235 234 239 252 252 228 212 215 219 119 56 279 218 203 210
323 328 335 322 341 356 13 27 15 353 347 12 33 11 347 319 316 333 308 298 319 303 261 262 251 239 247 241 203 172 192 198 187 176 190 200 194 189 149 159 158 167 193 235 191 145 168 171 187 187 200 218 239 257 277 296 335 338 167 201 216 224 234 246 259 268 274 269 260 243 243 233 222 241 229 217 218 216 227 230 224 204 196 221 223 227 222
279 288 295 293 310 5 4 16 12 354 30 50 108 267 326 310 314 300 283 254 256 273 261 238 238 236 250 239 213 207 199 206 206 186 199 205 208 201 159 172 168 184 193 216 210 169 175 188 188 192 205 220 235 242 242 239 220 274 299 302 326 318 297 276 261 269 261 250 242 246 257 276 256 232 239 243 237 239 241 239 234 233 216 212 223 227 235